owner,sensor,date,latitude,longitude,vertical_datum,sea_water_practical_salinity,qcFlag 
DISL,ioos:station:DISL:DISL:1,2017-06-01T00:00:00Z,30.2513,-88.0778,2.153,10.1,1111122 
DISL,ioos:station:DISL:DISL:1,2017-06-01T00:30:00Z,30.2513,-88.0778,2.075,10.01,1111122 
DISL,ioos:station:DISL:DISL:1,2017-06-01T01:00:00Z,30.2513,-88.0778,2.065,9.71,1111122 
DISL,ioos:station:DISL:DISL:1,2017-06-01T01:30:00Z,30.2513,-88.0778,2.037,10.45,1111122 
DISL,ioos:station:DISL:DISL:1,2017-06-01T02:00:00Z,30.2513,-88.0778,2.017,9.25,1111122 
DISL,ioos:station:DISL:DISL:1,2017-06-01T02:30:00Z,30.2513,-88.0778,2.041,9.46,1111122 
DISL,ioos:station:DISL:DISL:1,2017-06-01T03:00:00Z,30.2513,-88.0778,1.994,9.42,1111122 
DISL,ioos:station:DISL:DISL:1,2017-06-01T03:30:00Z,30.2513,-88.0778,1.969,9.07,1111122 
DISL,ioos:station:DISL:DISL:1,2017-06-01T04:00:00Z,30.2513,-88.0778,1.974,9.05,1111122 
DISL,ioos:station:DISL:DISL:1,2017-06-01T04:30:00Z,30.2513,-88.0778,1.969,9.02,1111122 
DISL,ioos:station:DISL:DISL:1,2017-06-01T05:30:00Z,30.2513,-88.0778,1.974,8.71,1111122 
DISL,ioos:station:DISL:DISL:1,2017-06-01T06:00:00Z,30.2513,-88.0778,1.938,8.61,1111122 
DISL,ioos:station:DISL:DISL:1,2017-06-01T06:30:00Z,30.2513,-88.0778,1.941,8.72,1111122 
DISL,ioos:station:DISL:DISL:1,2017-06-01T07:00:00Z,30.2513,-88.0778,1.923,8.59,1111122 
DISL,ioos:station:DISL:DISL:1,2017-06-01T07:30:00Z,30.2513,-88.0778,1.925,8.61,1111122 
DISL,ioos:station:DISL:DISL:1,2017-06-01T08:00:00Z,30.2513,-88.0778,1.912,8.68,1111122 
DISL,ioos:station:DISL:DISL:1,2017-06-01T08:30:00Z,30.2513,-88.0778,1.896,8.66,1111122 
DISL,ioos:station:DISL:DISL:1,2017-06-01T09:00:00Z,30.2513,-88.0778,1.896,7.93,1111122 
DISL,ioos:station:DISL:DISL:1,2017-06-01T09:30:00Z,30.2513,-88.0778,1.919,7.8,1111122 
DISL,ioos:station:DISL:DISL:1,2017-06-01T10:00:00Z,30.2513,-88.0778,1.932,7.99,1111122 
DISL,ioos:station:DISL:DISL:1,2017-06-01T10:30:00Z,30.2513,-88.0778,1.949,8.19,1111122 
DISL,ioos:station:DISL:DISL:1,2017-06-01T11:00:00Z,30.2513,-88.0778,1.963,8.39,1111122 
DISL,ioos:station:DISL:DISL:1,2017-06-01T11:30:00Z,30.2513,-88.0778,1.958,9.64,1111122 
DISL,ioos:station:DISL:DISL:1,2017-06-01T12:00:00Z,30.2513,-88.0778,1.988,10.58,1111122 
DISL,ioos:station:DISL:DISL:1,2017-06-01T12:30:00Z,30.2513,-88.0778,1.985,11.28,1111122 
DISL,ioos:station:DISL:DISL:1,2017-06-01T13:00:00Z,30.2513,-88.0778,2.005,11.58,1111122 
DISL,ioos:station:DISL:DISL:1,2017-06-01T13:30:00Z,30.2513,-88.0778,2.025,11.22,1111122 
DISL,ioos:station:DISL:DISL:1,2017-06-01T14:00:00Z,30.2513,-88.0778,2.033,10.86,1111122 
DISL,ioos:station:DISL:DISL:1,2017-06-01T14:30:00Z,30.2513,-88.0778,2.062,10.46,1111122 
DISL,ioos:station:DISL:DISL:1,2017-06-01T15:00:00Z,30.2513,-88.0778,2.079,10.19,1111122 
DISL,ioos:station:DISL:DISL:1,2017-06-01T15:30:00Z,30.2513,-88.0778,2.074,14.76,1111122 
DISL,ioos:station:DISL:DISL:1,2017-06-01T16:00:00Z,30.2513,-88.0778,2.081,15.36,1111122 
DISL,ioos:station:DISL:DISL:1,2017-06-01T16:30:00Z,30.2513,-88.0778,2.097,16.18,1111122 
DISL,ioos:station:DISL:DISL:1,2017-06-01T17:00:00Z,30.2513,-88.0778,2.115,16.65,1111122 
DISL,ioos:station:DISL:DISL:1,2017-06-01T17:30:00Z,30.2513,-88.0778,2.123,13.89,1111122 
DISL,ioos:station:DISL:DISL:1,2017-06-01T18:00:00Z,30.2513,-88.0778,2.114,11.19,1111122 
DISL,ioos:station:DISL:DISL:1,2017-06-01T18:30:00Z,30.2513,-88.0778,2.076,12.2,1111122 
DISL,ioos:station:DISL:DISL:1,2017-06-01T19:00:00Z,30.2513,-88.0778,2.089,11.48,1111122 
DISL,ioos:station:DISL:DISL:1,2017-06-01T19:30:00Z,30.2513,-88.0778,2.088,10.86,1111122 
DISL,ioos:station:DISL:DISL:1,2017-06-01T20:00:00Z,30.2513,-88.0778,2.114,8.3,1111122 
DISL,ioos:station:DISL:DISL:1,2017-06-01T20:30:00Z,30.2513,-88.0778,2.087,7.77,1111122 
DISL,ioos:station:DISL:DISL:1,2017-06-01T21:00:00Z,30.2513,-88.0778,2.127,7.76,1111122 
DISL,ioos:station:DISL:DISL:1,2017-06-01T21:30:00Z,30.2513,-88.0778,2.121,7.36,1111122 
DISL,ioos:station:DISL:DISL:1,2017-06-01T22:00:00Z,30.2513,-88.0778,2.111,7.38,1111122 
DISL,ioos:station:DISL:DISL:1,2017-06-01T22:30:00Z,30.2513,-88.0778,2.113,7.91,1111122 
DISL,ioos:station:DISL:DISL:1,2017-06-01T23:00:00Z,30.2513,-88.0778,2.115,7.13,1111122 
DISL,ioos:station:DISL:DISL:1,2017-06-01T23:30:00Z,30.2513,-88.0778,2.095,7.1,1111122 
DISL,ioos:station:DISL:DISL:1,2017-06-02T00:00:00Z,30.2513,-88.0778,2.088,7.0,1111122 
DISL,ioos:station:DISL:DISL:1,2017-06-02T00:30:00Z,30.2513,-88.0778,2.069,6.92,1111122 
DISL,ioos:station:DISL:DISL:1,2017-06-02T01:00:00Z,30.2513,-88.0778,2.073,6.96,1111122 
DISL,ioos:station:DISL:DISL:1,2017-06-02T01:30:00Z,30.2513,-88.0778,2.033,7.07,1111122 
DISL,ioos:station:DISL:DISL:1,2017-06-02T02:00:00Z,30.2513,-88.0778,2.023,7.55,1111122 
DISL,ioos:station:DISL:DISL:1,2017-06-02T02:30:00Z,30.2513,-88.0778,2.023,8.04,1111122 
DISL,ioos:station:DISL:DISL:1,2017-06-02T03:00:00Z,30.2513,-88.0778,2.034,7.29,1111122 
DISL,ioos:station:DISL:DISL:1,2017-06-02T03:30:00Z,30.2513,-88.0778,2.026,6.94,1111122 
DISL,ioos:station:DISL:DISL:1,2017-06-02T04:00:00Z,30.2513,-88.0778,2.007,7.12,1111122 
DISL,ioos:station:DISL:DISL:1,2017-06-02T04:30:00Z,30.2513,-88.0778,2.007,6.75,1111122 
DISL,ioos:station:DISL:DISL:1,2017-06-02T05:30:00Z,30.2513,-88.0778,1.976,6.74,1111122 
DISL,ioos:station:DISL:DISL:1,2017-06-02T06:00:00Z,30.2513,-88.0778,1.973,6.68,1111122 
DISL,ioos:station:DISL:DISL:1,2017-06-02T06:30:00Z,30.2513,-88.0778,1.958,6.64,1111122 
DISL,ioos:station:DISL:DISL:1,2017-06-02T07:00:00Z,30.2513,-88.0778,1.977,6.72,1111122 
DISL,ioos:station:DISL:DISL:1,2017-06-02T07:30:00Z,30.2513,-88.0778,1.97,6.89,1111122 
DISL,ioos:station:DISL:DISL:1,2017-06-02T08:00:00Z,30.2513,-88.0778,1.988,7.76,1111122 
DISL,ioos:station:DISL:DISL:1,2017-06-02T08:30:00Z,30.2513,-88.0778,1.986,7.97,1111122 
DISL,ioos:station:DISL:DISL:1,2017-06-02T09:00:00Z,30.2513,-88.0778,2.004,7.79,1111122 
DISL,ioos:station:DISL:DISL:1,2017-06-02T09:30:00Z,30.2513,-88.0778,2.02,9.63,1111122 
DISL,ioos:station:DISL:DISL:1,2017-06-02T10:00:00Z,30.2513,-88.0778,2.0,9.87,1111122 
DISL,ioos:station:DISL:DISL:1,2017-06-02T10:30:00Z,30.2513,-88.0778,2.032,10.31,1111122 
DISL,ioos:station:DISL:DISL:1,2017-06-02T11:00:00Z,30.2513,-88.0778,2.049,10.52,1111122 
DISL,ioos:station:DISL:DISL:1,2017-06-02T11:30:00Z,30.2513,-88.0778,2.067,10.36,1111122 
DISL,ioos:station:DISL:DISL:1,2017-06-02T12:00:00Z,30.2513,-88.0778,2.098,11.43,1111122 
DISL,ioos:station:DISL:DISL:1,2017-06-02T12:30:00Z,30.2513,-88.0778,2.06,12.22,1111122 
DISL,ioos:station:DISL:DISL:1,2017-06-02T13:00:00Z,30.2513,-88.0778,2.101,12.9,1111122 
DISL,ioos:station:DISL:DISL:1,2017-06-02T13:30:00Z,30.2513,-88.0778,2.122,12.5,1111122 
DISL,ioos:station:DISL:DISL:1,2017-06-02T14:00:00Z,30.2513,-88.0778,2.12,10.84,1111122 
DISL,ioos:station:DISL:DISL:1,2017-06-02T14:30:00Z,30.2513,-88.0778,2.133,10.6,1111122 
DISL,ioos:station:DISL:DISL:1,2017-06-02T15:00:00Z,30.2513,-88.0778,2.137,10.34,1111122 
DISL,ioos:station:DISL:DISL:1,2017-06-02T15:30:00Z,30.2513,-88.0778,2.129,10.46,1111122 
DISL,ioos:station:DISL:DISL:1,2017-06-02T16:00:00Z,30.2513,-88.0778,2.131,10.4,1111122 
DISL,ioos:station:DISL:DISL:1,2017-06-02T16:30:00Z,30.2513,-88.0778,2.113,10.04,1111122 
DISL,ioos:station:DISL:DISL:1,2017-06-02T17:00:00Z,30.2513,-88.0778,2.109,7.87,1111122 
DISL,ioos:station:DISL:DISL:1,2017-06-02T17:30:00Z,30.2513,-88.0778,2.106,7.2,1111122 
DISL,ioos:station:DISL:DISL:1,2017-06-02T18:00:00Z,30.2513,-88.0778,2.107,7.6,1111122 
DISL,ioos:station:DISL:DISL:1,2017-06-02T18:30:00Z,30.2513,-88.0778,2.105,7.51,1111122 
DISL,ioos:station:DISL:DISL:1,2017-06-02T19:00:00Z,30.2513,-88.0778,2.084,8.51,1111122 
DISL,ioos:station:DISL:DISL:1,2017-06-02T19:30:00Z,30.2513,-88.0778,2.092,8.57,1111122 
DISL,ioos:station:DISL:DISL:1,2017-06-02T20:00:00Z,30.2513,-88.0778,2.102,9.02,1111122 
DISL,ioos:station:DISL:DISL:1,2017-06-02T20:30:00Z,30.2513,-88.0778,2.105,9.5,1111122 
DISL,ioos:station:DISL:DISL:1,2017-06-02T21:00:00Z,30.2513,-88.0778,2.088,9.61,1111122 
DISL,ioos:station:DISL:DISL:1,2017-06-02T21:30:00Z,30.2513,-88.0778,2.091,9.62,1111122 
DISL,ioos:station:DISL:DISL:1,2017-06-02T22:00:00Z,30.2513,-88.0778,2.099,9.78,1111122 
DISL,ioos:station:DISL:DISL:1,2017-06-02T22:30:00Z,30.2513,-88.0778,2.097,10.87,1111122 
DISL,ioos:station:DISL:DISL:1,2017-06-02T23:00:00Z,30.2513,-88.0778,2.093,9.96,1111122 
DISL,ioos:station:DISL:DISL:1,2017-06-02T23:30:00Z,30.2513,-88.0778,2.087,10.77,1111122 
DISL,ioos:station:DISL:DISL:1,2017-06-03T00:00:00Z,30.2513,-88.0778,2.096,10.11,1111122 
DISL,ioos:station:DISL:DISL:1,2017-06-03T00:30:00Z,30.2513,-88.0778,2.096,10.0,1111122 
DISL,ioos:station:DISL:DISL:1,2017-06-03T01:00:00Z,30.2513,-88.0778,2.088,10.15,1111122 
DISL,ioos:station:DISL:DISL:1,2017-06-03T01:30:00Z,30.2513,-88.0778,2.078,10.12,1111122 
DISL,ioos:station:DISL:DISL:1,2017-06-03T02:00:00Z,30.2513,-88.0778,2.087,10.33,1111122 
DISL,ioos:station:DISL:DISL:1,2017-06-03T02:30:00Z,30.2513,-88.0778,2.07,12.27,1111122 
DISL,ioos:station:DISL:DISL:1,2017-06-03T03:00:00Z,30.2513,-88.0778,2.043,13.62,1111122 
DISL,ioos:station:DISL:DISL:1,2017-06-03T03:30:00Z,30.2513,-88.0778,2.057,12.93,1111122 
DISL,ioos:station:DISL:DISL:1,2017-06-03T04:00:00Z,30.2513,-88.0778,2.05,11.87,1111122 
DISL,ioos:station:DISL:DISL:1,2017-06-03T04:30:00Z,30.2513,-88.0778,2.039,11.5,1111122 
DISL,ioos:station:DISL:DISL:1,2017-06-03T05:00:00Z,30.2513,-88.0778,2.025,11.65,1111122 
DISL,ioos:station:DISL:DISL:1,2017-06-03T05:30:00Z,30.2513,-88.0778,2.032,10.75,1111122 
DISL,ioos:station:DISL:DISL:1,2017-06-03T06:00:00Z,30.2513,-88.0778,2.029,10.9,1111122 
DISL,ioos:station:DISL:DISL:1,2017-06-03T06:30:00Z,30.2513,-88.0778,2.026,9.99,1111122 
DISL,ioos:station:DISL:DISL:1,2017-06-03T07:00:00Z,30.2513,-88.0778,2.033,9.98,1111122 
DISL,ioos:station:DISL:DISL:1,2017-06-03T07:30:00Z,30.2513,-88.0778,2.032,10.94,1111122 
DISL,ioos:station:DISL:DISL:1,2017-06-03T08:00:00Z,30.2513,-88.0778,2.05,13.44,1111122 
DISL,ioos:station:DISL:DISL:1,2017-06-03T08:30:00Z,30.2513,-88.0778,2.047,16.92,1111122 
DISL,ioos:station:DISL:DISL:1,2017-06-03T09:00:00Z,30.2513,-88.0778,2.06,16.24,1111122 
DISL,ioos:station:DISL:DISL:1,2017-06-03T09:30:00Z,30.2513,-88.0778,2.066,13.97,1111122 
DISL,ioos:station:DISL:DISL:1,2017-06-03T10:00:00Z,30.2513,-88.0778,2.092,14.27,1111122 
DISL,ioos:station:DISL:DISL:1,2017-06-03T10:30:00Z,30.2513,-88.0778,2.085,13.59,1111122 
DISL,ioos:station:DISL:DISL:1,2017-06-03T11:00:00Z,30.2513,-88.0778,2.099,11.51,1111122 
DISL,ioos:station:DISL:DISL:1,2017-06-03T11:30:00Z,30.2513,-88.0778,2.125,10.76,1111122 
DISL,ioos:station:DISL:DISL:1,2017-06-03T12:00:00Z,30.2513,-88.0778,2.132,11.19,1111122 
DISL,ioos:station:DISL:DISL:1,2017-06-03T12:30:00Z,30.2513,-88.0778,2.135,11.26,1111122 
DISL,ioos:station:DISL:DISL:1,2017-06-03T13:00:00Z,30.2513,-88.0778,2.148,11.41,1111122 
DISL,ioos:station:DISL:DISL:1,2017-06-03T13:30:00Z,30.2513,-88.0778,2.153,11.83,1111122 
DISL,ioos:station:DISL:DISL:1,2017-06-03T14:00:00Z,30.2513,-88.0778,2.168,11.49,1111122 
DISL,ioos:station:DISL:DISL:1,2017-06-03T14:30:00Z,30.2513,-88.0778,2.18,11.97,1111122 
DISL,ioos:station:DISL:DISL:1,2017-06-03T15:00:00Z,30.2513,-88.0778,2.153,11.77,1111122 
DISL,ioos:station:DISL:DISL:1,2017-06-03T15:30:00Z,30.2513,-88.0778,2.144,12.03,1111122 
DISL,ioos:station:DISL:DISL:1,2017-06-03T16:00:00Z,30.2513,-88.0778,2.134,12.25,1111122 
DISL,ioos:station:DISL:DISL:1,2017-06-03T16:30:00Z,30.2513,-88.0778,2.125,12.61,1111122 
DISL,ioos:station:DISL:DISL:1,2017-06-03T17:00:00Z,30.2513,-88.0778,2.107,12.73,1111122 
DISL,ioos:station:DISL:DISL:1,2017-06-03T17:30:00Z,30.2513,-88.0778,2.092,12.65,1111122 
DISL,ioos:station:DISL:DISL:1,2017-06-03T18:00:00Z,30.2513,-88.0778,2.078,11.5,1111122 
DISL,ioos:station:DISL:DISL:1,2017-06-03T18:30:00Z,30.2513,-88.0778,2.084,11.25,1111122 
DISL,ioos:station:DISL:DISL:1,2017-06-03T19:00:00Z,30.2513,-88.0778,2.078,11.0,1111122 
DISL,ioos:station:DISL:DISL:1,2017-06-03T19:30:00Z,30.2513,-88.0778,2.055,10.82,1111122 
DISL,ioos:station:DISL:DISL:1,2017-06-03T20:00:00Z,30.2513,-88.0778,2.06,10.73,1111122 
DISL,ioos:station:DISL:DISL:1,2017-06-03T20:30:00Z,30.2513,-88.0778,2.052,10.73,1111122 
DISL,ioos:station:DISL:DISL:1,2017-06-03T21:00:00Z,30.2513,-88.0778,2.045,10.43,1111122 
DISL,ioos:station:DISL:DISL:1,2017-06-03T21:30:00Z,30.2513,-88.0778,2.029,10.13,1111122 
DISL,ioos:station:DISL:DISL:1,2017-06-03T22:00:00Z,30.2513,-88.0778,2.016,9.16,1111122 
DISL,ioos:station:DISL:DISL:1,2017-06-03T22:30:00Z,30.2513,-88.0778,2.023,8.81,1111122 
DISL,ioos:station:DISL:DISL:1,2017-06-03T23:00:00Z,30.2513,-88.0778,2.024,8.85,1111122 
DISL,ioos:station:DISL:DISL:1,2017-06-03T23:30:00Z,30.2513,-88.0778,2.04,9.62,1111122 
DISL,ioos:station:DISL:DISL:1,2017-06-04T00:00:00Z,30.2513,-88.0778,2.055,9.47,1111122 
DISL,ioos:station:DISL:DISL:1,2017-06-04T00:30:00Z,30.2513,-88.0778,2.036,9.58,1111122 
DISL,ioos:station:DISL:DISL:1,2017-06-04T01:00:00Z,30.2513,-88.0778,1.986,10.48,1111122 
DISL,ioos:station:DISL:DISL:1,2017-06-04T01:30:00Z,30.2513,-88.0778,2.007,7.95,1111122 
DISL,ioos:station:DISL:DISL:1,2017-06-04T02:00:00Z,30.2513,-88.0778,1.979,8.11,1111122 
DISL,ioos:station:DISL:DISL:1,2017-06-04T02:30:00Z,30.2513,-88.0778,2.012,7.6,1111122 
DISL,ioos:station:DISL:DISL:1,2017-06-04T03:00:00Z,30.2513,-88.0778,2.0,7.51,1111122 
DISL,ioos:station:DISL:DISL:1,2017-06-04T03:30:00Z,30.2513,-88.0778,2.029,7.29,1111122 
DISL,ioos:station:DISL:DISL:1,2017-06-04T04:00:00Z,30.2513,-88.0778,2.025,8.72,1111122 
DISL,ioos:station:DISL:DISL:1,2017-06-04T04:30:00Z,30.2513,-88.0778,2.026,8.27,1111122 
DISL,ioos:station:DISL:DISL:1,2017-06-04T05:30:00Z,30.2513,-88.0778,2.013,9.21,1111122 
DISL,ioos:station:DISL:DISL:1,2017-06-04T06:00:00Z,30.2513,-88.0778,2.022,10.21,1111122 
DISL,ioos:station:DISL:DISL:1,2017-06-04T06:30:00Z,30.2513,-88.0778,2.042,11.23,1111122 
DISL,ioos:station:DISL:DISL:1,2017-06-04T07:00:00Z,30.2513,-88.0778,2.054,11.5,1111122 
DISL,ioos:station:DISL:DISL:1,2017-06-04T07:30:00Z,30.2513,-88.0778,2.068,10.81,1111122 
DISL,ioos:station:DISL:DISL:1,2017-06-04T08:00:00Z,30.2513,-88.0778,2.09,11.12,1111122 
DISL,ioos:station:DISL:DISL:1,2017-06-04T08:30:00Z,30.2513,-88.0778,2.115,10.67,1111122 
DISL,ioos:station:DISL:DISL:1,2017-06-04T09:00:00Z,30.2513,-88.0778,2.121,10.81,1111122 
DISL,ioos:station:DISL:DISL:1,2017-06-04T09:30:00Z,30.2513,-88.0778,2.14,10.79,1111122 
DISL,ioos:station:DISL:DISL:1,2017-06-04T10:00:00Z,30.2513,-88.0778,2.17,10.54,1111122 
DISL,ioos:station:DISL:DISL:1,2017-06-04T10:30:00Z,30.2513,-88.0778,2.188,9.65,1111122 
DISL,ioos:station:DISL:DISL:1,2017-06-04T11:00:00Z,30.2513,-88.0778,2.193,10.35,1111122 
DISL,ioos:station:DISL:DISL:1,2017-06-04T11:30:00Z,30.2513,-88.0778,2.195,10.53,1111122 
DISL,ioos:station:DISL:DISL:1,2017-06-04T12:00:00Z,30.2513,-88.0778,2.199,10.6,1111122 
DISL,ioos:station:DISL:DISL:1,2017-06-04T12:30:00Z,30.2513,-88.0778,2.215,8.85,1111122 
DISL,ioos:station:DISL:DISL:1,2017-06-04T13:00:00Z,30.2513,-88.0778,2.221,8.04,1111122 
DISL,ioos:station:DISL:DISL:1,2017-06-04T13:30:00Z,30.2513,-88.0778,2.203,7.99,1111122 
DISL,ioos:station:DISL:DISL:1,2017-06-04T14:00:00Z,30.2513,-88.0778,2.216,8.34,1111122 
DISL,ioos:station:DISL:DISL:1,2017-06-04T14:30:00Z,30.2513,-88.0778,2.223,8.75,1111122 
DISL,ioos:station:DISL:DISL:1,2017-06-04T15:00:00Z,30.2513,-88.0778,2.213,8.34,1111122 
DISL,ioos:station:DISL:DISL:1,2017-06-04T15:30:00Z,30.2513,-88.0778,2.206,8.4,1111122 
DISL,ioos:station:DISL:DISL:1,2017-06-04T16:00:00Z,30.2513,-88.0778,2.192,8.44,1111122 
DISL,ioos:station:DISL:DISL:1,2017-06-04T16:30:00Z,30.2513,-88.0778,2.176,8.23,1111122 
DISL,ioos:station:DISL:DISL:1,2017-06-04T17:00:00Z,30.2513,-88.0778,2.158,8.36,1111122 
DISL,ioos:station:DISL:DISL:1,2017-06-04T17:30:00Z,30.2513,-88.0778,2.135,9.09,1111122 
DISL,ioos:station:DISL:DISL:1,2017-06-04T18:00:00Z,30.2513,-88.0778,2.121,8.17,1111122 
DISL,ioos:station:DISL:DISL:1,2017-06-04T18:30:00Z,30.2513,-88.0778,2.112,8.25,1111122 
DISL,ioos:station:DISL:DISL:1,2017-06-04T19:00:00Z,30.2513,-88.0778,2.083,8.26,1111122 
DISL,ioos:station:DISL:DISL:1,2017-06-04T19:30:00Z,30.2513,-88.0778,2.079,8.38,1111122 
DISL,ioos:station:DISL:DISL:1,2017-06-04T20:00:00Z,30.2513,-88.0778,2.073,8.47,1111122 
DISL,ioos:station:DISL:DISL:1,2017-06-04T20:30:00Z,30.2513,-88.0778,2.046,8.78,1111122 
DISL,ioos:station:DISL:DISL:1,2017-06-04T21:00:00Z,30.2513,-88.0778,2.058,8.39,1111122 
DISL,ioos:station:DISL:DISL:1,2017-06-04T21:30:00Z,30.2513,-88.0778,2.059,8.63,1111122 
DISL,ioos:station:DISL:DISL:1,2017-06-04T22:00:00Z,30.2513,-88.0778,2.073,9.28,1111122 
DISL,ioos:station:DISL:DISL:1,2017-06-04T22:30:00Z,30.2513,-88.0778,2.064,9.08,1111122 
DISL,ioos:station:DISL:DISL:1,2017-06-04T23:00:00Z,30.2513,-88.0778,2.053,9.19,1111122 
DISL,ioos:station:DISL:DISL:1,2017-06-04T23:30:00Z,30.2513,-88.0778,2.052,9.36,1111122 
DISL,ioos:station:DISL:DISL:1,2017-06-05T00:00:00Z,30.2513,-88.0778,2.037,8.79,1111122 
DISL,ioos:station:DISL:DISL:1,2017-06-05T00:30:00Z,30.2513,-88.0778,2.042,9.16,1111122 
DISL,ioos:station:DISL:DISL:1,2017-06-05T01:00:00Z,30.2513,-88.0778,2.059,9.37,1111122 
DISL,ioos:station:DISL:DISL:1,2017-06-05T01:30:00Z,30.2513,-88.0778,2.019,9.27,1111122 
DISL,ioos:station:DISL:DISL:1,2017-06-05T02:00:00Z,30.2513,-88.0778,2.041,9.24,1111122 
DISL,ioos:station:DISL:DISL:1,2017-06-05T02:30:00Z,30.2513,-88.0778,2.052,9.07,1111122 
DISL,ioos:station:DISL:DISL:1,2017-06-05T03:00:00Z,30.2513,-88.0778,2.052,9.65,1111122 
DISL,ioos:station:DISL:DISL:1,2017-06-05T03:30:00Z,30.2513,-88.0778,2.068,9.52,1111122 
DISL,ioos:station:DISL:DISL:1,2017-06-05T04:00:00Z,30.2513,-88.0778,2.079,9.81,1111122 
DISL,ioos:station:DISL:DISL:1,2017-06-05T04:30:00Z,30.2513,-88.0778,2.081,10.11,1111122 
DISL,ioos:station:DISL:DISL:1,2017-06-05T05:30:00Z,30.2513,-88.0778,2.103,9.42,1111122 
DISL,ioos:station:DISL:DISL:1,2017-06-05T06:00:00Z,30.2513,-88.0778,2.122,9.25,1111122 
DISL,ioos:station:DISL:DISL:1,2017-06-05T06:30:00Z,30.2513,-88.0778,2.121,9.42,1111122 
DISL,ioos:station:DISL:DISL:1,2017-06-05T07:00:00Z,30.2513,-88.0778,2.14,10.3,1111122 
DISL,ioos:station:DISL:DISL:1,2017-06-05T07:30:00Z,30.2513,-88.0778,2.134,10.76,1111122 
DISL,ioos:station:DISL:DISL:1,2017-06-05T08:00:00Z,30.2513,-88.0778,2.157,10.83,1111122 
DISL,ioos:station:DISL:DISL:1,2017-06-05T08:30:00Z,30.2513,-88.0778,2.186,10.96,1111122 
DISL,ioos:station:DISL:DISL:1,2017-06-05T09:00:00Z,30.2513,-88.0778,2.209,11.0,1111122 
DISL,ioos:station:DISL:DISL:1,2017-06-05T09:30:00Z,30.2513,-88.0778,2.225,11.41,1111122 
DISL,ioos:station:DISL:DISL:1,2017-06-05T10:00:00Z,30.2513,-88.0778,2.227,11.91,1111122 
DISL,ioos:station:DISL:DISL:1,2017-06-05T10:30:00Z,30.2513,-88.0778,2.283,12.1,1111122 
DISL,ioos:station:DISL:DISL:1,2017-06-05T11:00:00Z,30.2513,-88.0778,2.287,12.6,1111122 
DISL,ioos:station:DISL:DISL:1,2017-06-05T11:30:00Z,30.2513,-88.0778,2.287,12.27,1111122 
DISL,ioos:station:DISL:DISL:1,2017-06-05T12:00:00Z,30.2513,-88.0778,2.295,12.29,1111122 
DISL,ioos:station:DISL:DISL:1,2017-06-05T12:30:00Z,30.2513,-88.0778,2.295,12.03,1111122 
DISL,ioos:station:DISL:DISL:1,2017-06-05T13:00:00Z,30.2513,-88.0778,2.288,11.97,1111122 
DISL,ioos:station:DISL:DISL:1,2017-06-05T13:30:00Z,30.2513,-88.0778,2.288,12.12,1111122 
DISL,ioos:station:DISL:DISL:1,2017-06-05T14:00:00Z,30.2513,-88.0778,2.285,10.47,1111122 
DISL,ioos:station:DISL:DISL:1,2017-06-05T14:30:00Z,30.2513,-88.0778,2.29,10.06,1111122 
DISL,ioos:station:DISL:DISL:1,2017-06-05T15:00:00Z,30.2513,-88.0778,2.292,10.54,1111122 
DISL,ioos:station:DISL:DISL:1,2017-06-05T15:30:00Z,30.2513,-88.0778,2.287,10.49,1111122 
DISL,ioos:station:DISL:DISL:1,2017-06-05T16:00:00Z,30.2513,-88.0778,2.259,10.76,1111122 
DISL,ioos:station:DISL:DISL:1,2017-06-05T16:30:00Z,30.2513,-88.0778,2.239,10.38,1111122 
DISL,ioos:station:DISL:DISL:1,2017-06-05T17:00:00Z,30.2513,-88.0778,2.218,10.63,1111122 
DISL,ioos:station:DISL:DISL:1,2017-06-05T17:30:00Z,30.2513,-88.0778,2.176,10.33,1111122 
DISL,ioos:station:DISL:DISL:1,2017-06-05T18:00:00Z,30.2513,-88.0778,2.18,10.32,1111122 
DISL,ioos:station:DISL:DISL:1,2017-06-05T18:30:00Z,30.2513,-88.0778,2.152,11.14,1111122 
DISL,ioos:station:DISL:DISL:1,2017-06-05T19:00:00Z,30.2513,-88.0778,2.137,12.37,1111122 
DISL,ioos:station:DISL:DISL:1,2017-06-05T19:30:00Z,30.2513,-88.0778,2.097,12.71,1111122 
DISL,ioos:station:DISL:DISL:1,2017-06-05T20:00:00Z,30.2513,-88.0778,2.104,11.99,1111122 
DISL,ioos:station:DISL:DISL:1,2017-06-05T20:30:00Z,30.2513,-88.0778,2.139,11.82,1111122 
DISL,ioos:station:DISL:DISL:1,2017-06-05T21:00:00Z,30.2513,-88.0778,2.098,13.15,1111122 
DISL,ioos:station:DISL:DISL:1,2017-06-05T21:30:00Z,30.2513,-88.0778,2.063,12.47,1111122 
DISL,ioos:station:DISL:DISL:1,2017-06-05T22:00:00Z,30.2513,-88.0778,2.057,12.08,1111122 
DISL,ioos:station:DISL:DISL:1,2017-06-05T22:30:00Z,30.2513,-88.0778,2.067,13.59,1111122 
DISL,ioos:station:DISL:DISL:1,2017-06-05T23:00:00Z,30.2513,-88.0778,2.046,12.55,1111122 
DISL,ioos:station:DISL:DISL:1,2017-06-05T23:30:00Z,30.2513,-88.0778,2.031,13.09,1111122 
DISL,ioos:station:DISL:DISL:1,2017-06-06T00:00:00Z,30.2513,-88.0778,2.056,12.9,1111122 
DISL,ioos:station:DISL:DISL:1,2017-06-06T00:30:00Z,30.2513,-88.0778,2.073,12.41,1111122 
DISL,ioos:station:DISL:DISL:1,2017-06-06T01:00:00Z,30.2513,-88.0778,2.053,12.13,1111122 
DISL,ioos:station:DISL:DISL:1,2017-06-06T01:30:00Z,30.2513,-88.0778,2.062,11.68,1111122 
DISL,ioos:station:DISL:DISL:1,2017-06-06T02:00:00Z,30.2513,-88.0778,2.048,11.36,1111122 
DISL,ioos:station:DISL:DISL:1,2017-06-06T02:30:00Z,30.2513,-88.0778,2.072,11.28,1111122 
DISL,ioos:station:DISL:DISL:1,2017-06-06T03:00:00Z,30.2513,-88.0778,2.083,11.96,1111122 
DISL,ioos:station:DISL:DISL:1,2017-06-06T03:30:00Z,30.2513,-88.0778,2.105,13.31,1111122 
DISL,ioos:station:DISL:DISL:1,2017-06-06T04:00:00Z,30.2513,-88.0778,2.087,14.11,1111122 
DISL,ioos:station:DISL:DISL:1,2017-06-06T04:30:00Z,30.2513,-88.0778,2.116,14.2,1111122 
DISL,ioos:station:DISL:DISL:1,2017-06-06T05:30:00Z,30.2513,-88.0778,2.146,13.93,1111122 
DISL,ioos:station:DISL:DISL:1,2017-06-06T06:00:00Z,30.2513,-88.0778,2.132,13.83,1111122 
DISL,ioos:station:DISL:DISL:1,2017-06-06T06:30:00Z,30.2513,-88.0778,2.18,13.8,1111122 
DISL,ioos:station:DISL:DISL:1,2017-06-06T07:00:00Z,30.2513,-88.0778,2.22,13.29,1111122 
DISL,ioos:station:DISL:DISL:1,2017-06-06T07:30:00Z,30.2513,-88.0778,2.201,13.34,1111122 
DISL,ioos:station:DISL:DISL:1,2017-06-06T08:00:00Z,30.2513,-88.0778,2.179,13.06,1111122 
DISL,ioos:station:DISL:DISL:1,2017-06-06T08:30:00Z,30.2513,-88.0778,2.216,13.13,1111122 
DISL,ioos:station:DISL:DISL:1,2017-06-06T09:00:00Z,30.2513,-88.0778,2.295,13.1,1111122 
DISL,ioos:station:DISL:DISL:1,2017-06-06T09:30:00Z,30.2513,-88.0778,2.28,12.85,1111122 
DISL,ioos:station:DISL:DISL:1,2017-06-06T10:00:00Z,30.2513,-88.0778,2.279,16.06,1111122 
DISL,ioos:station:DISL:DISL:1,2017-06-06T10:30:00Z,30.2513,-88.0778,2.335,17.02,1111122 
DISL,ioos:station:DISL:DISL:1,2017-06-06T11:00:00Z,30.2513,-88.0778,2.362,17.15,1111122 
DISL,ioos:station:DISL:DISL:1,2017-06-06T11:30:00Z,30.2513,-88.0778,2.415,16.74,1111122 
DISL,ioos:station:DISL:DISL:1,2017-06-06T12:00:00Z,30.2513,-88.0778,2.395,17.81,1111122 
DISL,ioos:station:DISL:DISL:1,2017-06-06T12:30:00Z,30.2513,-88.0778,2.381,19.32,1111122 
DISL,ioos:station:DISL:DISL:1,2017-06-06T13:00:00Z,30.2513,-88.0778,2.418,17.13,1111122 
DISL,ioos:station:DISL:DISL:1,2017-06-06T13:30:00Z,30.2513,-88.0778,2.406,15.23,1111122 
DISL,ioos:station:DISL:DISL:1,2017-06-06T14:00:00Z,30.2513,-88.0778,2.387,15.7,1111122 
DISL,ioos:station:DISL:DISL:1,2017-06-06T14:30:00Z,30.2513,-88.0778,2.438,15.88,1111122 
DISL,ioos:station:DISL:DISL:1,2017-06-06T15:00:00Z,30.2513,-88.0778,2.447,12.58,1111122 
DISL,ioos:station:DISL:DISL:1,2017-06-06T15:30:00Z,30.2513,-88.0778,2.423,12.33,1111122 
DISL,ioos:station:DISL:DISL:1,2017-06-06T16:00:00Z,30.2513,-88.0778,2.391,12.59,1111122 
DISL,ioos:station:DISL:DISL:1,2017-06-06T16:30:00Z,30.2513,-88.0778,2.363,11.64,1111122 
DISL,ioos:station:DISL:DISL:1,2017-06-06T17:00:00Z,30.2513,-88.0778,2.366,11.35,1111122 